Hoquiam, WA

7:00 PM PDT on March 24, 2017 (GMT -0700)
Bowerman

Weather History for KHQM - September, 2014

Change the Weather History Date:

Friday, September 12, 2014

  Actual Average Record
Temperature  
Mean Temperature 66 °F 60 °F  
Max Temperature 81 °F 67 °F 91 °F (1975)
Min Temperature 50 °F 52 °F 42 °F (1955)
Degree Days  
Heating Degree Days 0 5  
Month to date heating degree days 35 60  
Cooling Degree Days 1 0  
Month to date cooling degree days 12 0  
Year to date cooling degree days 42 16  
Growing Degree Days 16 (Base 50)    
Moisture  
Dew Point 36 °F    
Average Humidity 38    
Maximum Humidity 62    
Minimum Humidity 13    
Precipitation  
Precipitation 0.00 in 0.07 in 0.85 in (1985)
Month to date precipitation 0.24 0.79  
Year to date precipitation 43.89 38.40  
Sea Level Pressure  
Sea Level Pressure 30.00 in    
Wind  
Wind Speed 8 mph (NE)    
Max Wind Speed 18 mph    
Max Gust Speed 25 mph    
Visibility 9 miles    
Events      
T = Trace of Precipitation, MM = Missing Value Source: NWS Daily Summary

Daily Weather History Graph

Daily Weather History Graph

Search for Another Location

Airport or City:

Trip Planner

Search our weather history database for the weather conditions in past years. The results will help you decide how hot, cold, wet, or windy it might be!

Date:

Astronomy

Sep. 12, 2014 Rise Set
Actual Time 6:49 AM PDT 7:33 PM PDT
Civil Twilight 6:18 AM PDT 8:04 PM PDT
Nautical Twilight 5:42 AM PDT 8:40 PM PDT
Astronomical Twilight 5:03 AM PDT 9:18 PM PDT
Moon 9:39 PM PDT (9/12) 11:16 AM PDT (9/12)
Length of Visible Light 13h 45m
Length of Day
12h 43m
Waning Gibbous, 82% of the Moon is Illuminated
Sep 12
Waning Gibbous
Sep 15
Last Quarter
Sep 23
New
Oct 1
First Quarter
Oct 8
Full

Hourly Weather History & Observations

Time (PDT) Temp. Dew Point Humidity Pressure Visibility Wind Dir Wind Speed Gust Speed Precip Events Conditions
12:53 AM 59.0 °F 34.0 °F 39% 30.10 in 10.0 mi NE 5.8 mph - N/A   Clear
1:53 AM 59.0 °F 34.0 °F 39% 30.09 in 10.0 mi NE 8.1 mph - N/A   Clear
2:53 AM 55.9 °F 41.0 °F 57% 30.08 in 10.0 mi East 8.1 mph - N/A   Clear
3:53 AM 52.0 °F 37.0 °F 57% 30.07 in 9.0 mi NE 6.9 mph - N/A   Clear
4:53 AM 54.0 °F 35.1 °F 49% 30.06 in 10.0 mi NE 8.1 mph - N/A   Clear
5:53 AM 55.0 °F 34.0 °F 45% 30.05 in 9.0 mi NE 5.8 mph - N/A   Clear
6:53 AM 54.0 °F 37.0 °F 53% 30.05 in 9.0 mi East 5.8 mph - N/A   Clear
7:53 AM 54.0 °F 39.0 °F 57% 30.04 in 8.0 mi East 6.9 mph - N/A   Clear
8:53 AM 62.1 °F 35.1 °F 37% 30.04 in 9.0 mi NE 8.1 mph - N/A   Clear
9:53 AM 66.0 °F 34.0 °F 30% 30.03 in 9.0 mi NE 11.5 mph - N/A   Clear
10:53 AM 71.1 °F 30.9 °F 23% 30.03 in 9.0 mi NE 12.7 mph 20.7 mph N/A   Clear
11:53 AM 73.9 °F 30.0 °F 20% 30.01 in 9.0 mi NE 13.8 mph 25.3 mph N/A   Clear
12:53 PM 77.0 °F 30.0 °F 18% 29.99 in 10.0 mi NE 12.7 mph - N/A   Clear
1:53 PM 80.1 °F 25.0 °F 13% 29.97 in 9.0 mi NNE 11.5 mph 19.6 mph N/A   Clear
2:53 PM 81.0 °F 26.1 °F 13% 29.96 in 9.0 mi NE 9.2 mph 18.4 mph N/A   Clear
3:53 PM 75.9 °F 35.1 °F 23% 29.95 in 9.0 mi South 4.6 mph - N/A   Clear
4:53 PM 75.0 °F 41.0 °F 29% 29.94 in 9.0 mi South 5.8 mph - N/A   Clear
5:53 PM 75.9 °F 39.0 °F 26% 29.93 in 9.0 mi West 9.2 mph - N/A   Clear
6:53 PM 73.0 °F 39.0 °F 29% 29.93 in 9.0 mi NW 8.1 mph - N/A   Clear
7:53 PM 68.0 °F 37.9 °F 33% 29.93 in 10.0 mi NNW 6.9 mph - N/A   Clear
8:53 PM 62.1 °F 48.9 °F 62% 29.94 in 10.0 mi Calm Calm - N/A   Clear
9:53 PM 59.0 °F 41.0 °F 51% 29.94 in 10.0 mi Calm Calm - N/A   Clear
10:53 PM 63.0 °F 36.0 °F 37% 29.94 in 10.0 mi North 6.9 mph - N/A   Clear
11:53 PM 57.0 °F 44.1 °F 62% 29.95 in 9.0 mi East 5.8 mph - N/A   Clear